Wind_Speed
76 76 75 74 74 74 74 74 73 74 74 74 75 75 75 75 75 76 76 76 76 76 76 77 78 78 79 79 79 80 81 81 82 82 83 84 84 83 82 81 80 79 77 76 74 71 70 69 68 66 65 63 62 60 57 55 53 52 50 49 46 44 41 38 34 29 25 25 25 24 22 21 20 19 19 19 18 17 16 15 16 16 18 20 21
77 77 77 76 76 75 75 75 75 75 76 76 76 77 77 77 78 78 78 79 78 78 78 79 79 80 80 80 81 82 83 84 84 84 84 84 83 82 81 80 80 78 76 75 73 71 70 69 67 66 64 63 61 59 56 54 52 51 49 48 45 42 39 36 33 28 24 24 24 23 22 21 20 20 20 20 19 19 18 17 17 18 19 21 22
78 79 78 78 77 77 77 77 77 77 77 77 78 78 79 79 80 80 80 81 80 80 80 81 81 81 81 82 82 83 84 85 86 85 84 82 81 82 81 81 80 78 76 74 72 71 69 68 67 65 64 62 60 58 55 53 51 50 48 46 43 41 38 35 31 26 24 23 23 23 23 22 21 20 21 21 21 20 19 19 19 19 21 22 23
80 80 80 80 79 79 79 79 78 78 78 79 79 80 80 81 81 82 82 83 82 82 82 82 83 83 83 84 84 85 86 86 86 84 82 82 82 82 82 81 79 77 75 74 72 71 69 68 67 65 64 62 60 57 55 52 50 49 47 45 42 39 36 34 30 25 23 23 22 22 23 23 21 21 21 22 22 21 21 20 20 21 21 22 23
82 82 82 82 81 81 81 81 80 80 80 80 80 81 82 82 83 84 84 84 84 84 84 85 85 85 85 86 86 86 86 85 85 83 82 83 83 82 82 81 79 77 75 73 72 71 69 67 66 65 63 61 59 57 54 51 49 48 46 43 40 37 35 32 28 24 23 22 21 22 23 23 22 21 22 22 23 23 22 22 22 22 22 23 24
84 84 84 84 84 83 83 83 82 82 82 82 83 84 84 84 85 86 87 87 86 86 86 87 87 86 86 87 87 87 86 85 84 83 83 83 82 82 81 80 79 77 75 73 72 71 69 67 66 64 63 61 59 56 54 51 49 47 45 41 38 35 33 30 26 24 23 21 21 22 23 23 23 22 22 23 24 25 24 23 23 23 23 23 24
87 87 87 87 87 87 86 85 85 85 85 85 86 86 87 87 88 88 88 88 87 87 88 88 88 87 87 88 88 87 86 84 84 84 84 83 82 81 80 79 79 77 75 73 72 71 68 67 65 64 62 60 58 56 53 50 47 45 43 40 36 34 32 29 25 24 22 21 21 22 23 24 24 23 23 24 25 26 25 25 24 24 24 24 24
89 89 90 90 90 90 89 88 88 88 88 88 89 89 88 88 89 89 90 90 89 89 90 89 88 87 87 87 87 86 85 84 84 85 84 83 82 81 80 79 78 77 75 73 72 70 68 66 65 63 62 60 58 55 52 49 46 44 42 39 35 32 31 27 24 24 22 21 21 22 23 24 25 25 24 24 26 27 27 26 25 24 24 25 25
91 92 92 92 92 92 92 91 89 89 90 89 88 87 88 90 90 91 91 91 91 91 91 89 88 87 86 86 86 86 85 85 85 84 84 83 82 81 80 79 78 77 75 73 71 69 67 65 64 63 61 59 57 54 51 48 45 43 40 37 34 31 29 26 24 24 22 21 22 23 24 25 26 26 26 26 27 29 28 27 26 25 25 25 26
93 93 94 94 94 94 93 92 88 86 87 88 88 88 90 91 92 92 92 91 91 91 90 88 88 87 85 85 86 86 86 85 85 84 84 84 83 82 80 79 77 76 75 72 70 68 66 64 63 62 60 58 56 53 50 46 43 41 39 36 33 31 29 26 24 24 22 22 23 23 24 25 27 28 28 27 28 30 30 29 27 26 26 26 26
94 94 94 94 94 94 93 92 89 86 87 89 90 90 90 91 92 91 91 91 90 90 89 88 88 87 86 86 86 86 86 85 85 84 84 84 83 82 80 79 77 76 74 72 69 67 65 63 62 60 59 57 55 52 48 45 42 39 37 34 32 30 28 25 24 24 23 23 24 24 24 25 28 29 29 29 30 31 31 31 29 27 26 26 26
94 94 94 94 94 93 92 92 91 89 89 90 90 89 89 91 92 91 90 90 90 90 89 89 88 88 88 87 87 87 86 86 85 85 84 83 83 82 80 79 77 76 74 71 68 65 63 61 59 58 58 56 54 50 46 43 40 37 35 33 31 29 27 25 24 24 24 24 25 25 25 26 29 31 30 31 31 33 33 32 31 29 27 26 26
95 95 94 94 94 93 93 92 91 91 90 91 91 90 90 92 92 91 90 89 89 90 89 89 89 89 88 88 88 88 87 87 86 85 84 83 83 82 79 78 76 74 72 70 66 63 62 60 58 58 57 55 52 48 44 41 38 35 33 31 30 29 27 25 24 24 25 25 26 27 26 26 30 33 32 32 32 34 34 33 32 30 28 26 26
95 95 95 94 94 94 93 93 93 92 91 92 92 91 92 92 91 90 90 90 90 90 90 90 90 89 89 90 89 89 88 88 87 86 85 84 83 80 78 76 74 72 69 66 64 62 60 59 58 57 55 53 50 46 42 39 36 33 31 31 30 28 26 25 25 25 25 26 27 28 28 27 30 35 34 34 34 34 35 34 33 32 30 28 26
96 96 95 95 95 94 94 94 93 93 93 93 92 93 93 91 91 91 91 91 90 90 90 90 91 90 91 90 90 90 90 89 89 87 86 84 81 78 75 73 71 69 66 64 63 61 58 58 57 56 54 51 47 43 40 37 35 31 30 30 30 28 26 25 25 26 26 27 27 28 30 29 30 35 37 36 35 35 36 36 34 33 32 30 28
97 96 95 95 94 94 94 94 94 94 94 93 93 93 93 92 92 92 92 91 91 91 91 91 92 91 91 90 90 91 91 90 88 87 85 82 78 75 72 70 68 66 64 63 61 59 58 57 56 54 51 47 44 41 38 35 32 30 29 30 30 28 26 26 26 26 27 28 28 29 31 30 30 35 38 38 37 36 36 36 36 34 33 32 30
98 97 96 95 95 94 94 94 94 94 94 94 95 94 94 94 93 93 92 91 89 87 86 88 90 90 90 90 91 91 90 88 86 84 82 79 76 72 70 67 65 63 62 60 58 58 56 54 53 51 48 44 41 38 36 33 31 29 29 30 30 28 26 26 27 27 27 28 28 29 31 32 31 34 39 40 39 37 36 36 37 35 34 33 32
99 98 97 96 95 95 95 95 96 96 96 97 97 96 96 95 95 93 92 91 88 84 84 87 90 91 91 90 90 89 87 84 82 81 79 76 73 70 67 65 63 61 59 58 56 55 53 51 50 48 45 42 39 36 33 31 29 29 30 30 30 28 26 26 28 28 27 28 28 29 31 33 33 34 38 41 40 39 37 37 37 37 35 34 33
100 99 99 98 97 97 97 97 98 98 99 99 99 98 97 96 95 93 91 91 89 86 83 84 90 92 89 87 86 86 84 81 80 78 75 73 70 67 65 63 60 58 56 55 54 51 50 49 47 45 43 40 37 34 32 30 29 30 31 30 29 28 27 26 28 28 27 27 28 29 31 33 34 35 37 40 41 40 38 37 37 37 36 35 34
102 101 100 99 99 99 99 99 99 100 100 100 100 99 98 96 95 94 92 91 89 86 83 84 89 90 87 85 85 83 81 79 77 74 71 69 68 66 64 61 58 55 53 52 51 49 48 47 44 42 40 37 35 33 31 30 29 31 31 30 28 27 27 27 28 27 27 27 27 29 31 33 35 37 37 40 42 41 39 38 37 37 37 36 35
103 102 101 101 100 100 100 100 100 101 101 100 100 99 98 96 95 94 92 90 88 85 86 87 87 86 85 84 82 81 79 76 74 71 69 68 66 64 61 58 56 53 51 49 47 44 43 44 42 40 38 36 33 32 31 30 30 32 32 30 28 27 27 28 28 27 26 26 27 29 30 32 35 37 39 40 42 42 40 38 37 37 37 37 36
103 102 101 101 100 100 100 100 100 100 100 100 100 99 97 95 94 92 90 89 88 87 86 86 85 84 83 81 80 78 76 75 73 69 67 65 63 61 58 56 53 50 49 45 40 40 40 40 39 37 37 35 33 32 31 30 32 33 31 29 27 27 27 28 28 27 26 27 27 28 30 32 34 37 40 41 43 43 42 40 38 37 37 37 37
103 101 100 99 98 97 98 98 98 98 99 98 98 98 96 95 93 92 89 88 88 87 86 85 84 83 80 79 78 76 74 72 70 67 64 62 61 59 56 54 50 48 45 41 38 39 39 38 37 36 36 35 33 33 32 31 33 32 29 28 26 26 28 28 28 27 27 27 28 28 29 31 33 35 39 42 43 44 44 42 40 38 37 37 36
99 98 96 95 95 95 95 96 96 96 96 95 95 94 93 93 92 90 89 88 87 86 85 84 82 81 78 77 75 74 71 69 66 64 62 59 57 55 53 51 47 44 40 38 38 37 37 36 34 35 36 35 34 33 33 33 33 31 28 27 26 26 28 28 28 28 28 28 28 28 28 29 30 33 37 42 44 45 44 42 39 38 37 36 35
94 93 93 92 92 92 92 92 93 93 92 92 91 91 90 90 89 88 87 86 85 84 82 81 79 78 76 75 73 71 68 65 63 61 59 56 54 52 50 47 44 40 38 36 36 36 36 34 33 35 36 36 35 34 34 33 32 29 28 26 25 26 27 28 29 29 28 28 28 27 27 27 28 30 35 41 45 46 45 43 40 38 37 37 35
91 90 90 89 89 88 88 88 88 89 88 88 87 87 87 86 86 85 84 83 82 81 80 78 76 75 73 72 71 68 65 62 60 57 55 52 50 48 47 45 42 40 39 37 36 36 36 35 34 36 37 36 35 35 35 34 32 29 28 26 26 27 28 28 29 29 28 27 27 26 26 26 26 28 33 39 44 46 45 44 41 39 37 36 35
90 88 87 87 86 86 86 86 86 86 85 84 84 84 84 83 83 82 81 80 79 78 77 75 74 72 71 69 67 65 61 59 56 54 51 49 47 46 45 43 40 39 39 37 35 36 37 36 35 36 36 35 35 36 35 34 31 29 28 26 27 28 28 29 29 29 28 27 26 24 25 26 26 27 31 38 43 45 46 45 43 41 39 37 35
87 87 86 85 85 84 84 84 84 83 83 82 82 82 82 81 81 80 79 78 77 76 74 72 71 69 68 66 64 61 58 55 53 50 48 46 44 43 41 39 38 37 36 35 34 36 36 34 36 36 35 35 36 36 35 33 30 28 27 27 29 29 29 30 29 29 28 27 26 24 24 25 26 26 29 37 42 45 46 46 44 42 40 38 37
86 86 86 85 84 83 83 82 82 82 81 81 80 80 80 80 79 78 77 76 75 73 71 70 68 66 64 62 60 58 55 52 50 47 45 42 40 39 37 35 35 34 33 33 33 35 34 33 35 35 33 35 36 35 35 33 30 28 28 30 32 31 30 31 30 29 29 27 26 25 25 25 25 26 28 34 41 45 46 47 46 44 41 38 37
85 85 85 85 84 83 82 81 81 80 80 80 80 79 79 78 77 76 75 74 72 70 68 66 64 62 60 58 56 54 52 49 46 43 39 36 35 35 33 31 32 33 33 33 34 34 33 32 34 34 33 34 35 33 33 33 30 28 31 35 35 33 31 32 31 30 29 27 26 25 25 25 25 25 27 31 37 44 47 47 47 47 45 41 39
85 85 84 84 83 82 82 81 80 80 80 79 79 78 77 76 75 74 72 70 69 67 65 63 60 58 57 55 53 51 49 45 42 38 32 28 30 33 31 29 30 30 31 33 34 33 32 31 33 34 35 35 35 33 33 33 31 29 34 38 36 33 32 32 31 30 29 27 26 25 24 24 24 26 27 28 33 40 46 48 48 47 47 46 44
84 84 83 83 82 82 81 80 80 79 78 78 77 76 75 74 72 70 69 67 65 62 61 59 57 55 53 52 50 48 45 41 38 33 27 26 32 33 29 27 27 28 29 31 32 32 33 32 32 34 36 36 35 34 33 32 31 30 36 39 34 31 31 31 30 30 28 26 24 23 23 23 24 26 27 28 30 35 41 46 47 47 47 47 47
83 83 82 82 82 81 81 80 79 78 77 75 74 72 71 70 68 66 64 62 60 58 56 55 53 51 50 48 46 44 41 38 35 31 27 27 32 33 30 29 28 26 28 30 29 31 34 34 33 33 35 36 35 34 33 32 32 33 38 38 33 30 29 29 29 28 25 23 22 22 22 22 24 26 27 28 29 33 37 41 45 46 45 46 47
82 81 81 81 80 79 79 78 76 75 73 72 70 68 66 64 62 61 59 57 56 54 53 51 49 48 46 44 43 40 37 35 32 29 28 27 30 32 29 31 30 28 28 28 26 30 35 36 35 33 34 36 35 34 34 34 34 36 38 36 32 30 28 29 29 27 24 22 21 21 22 23 25 25 26 27 29 32 37 40 42 44 45 44 44
79 78 77 77 77 76 75 74 72 70 68 66 64 62 60 58 56 55 54 53 52 50 49 47 46 44 43 41 39 37 34 33 31 27 27 29 31 32 30 30 32 32 31 28 26 29 34 36 35 34 34 35 35 34 34 35 37 38 38 36 35 33 31 31 32 30 27 25 23 22 23 25 26 25 24 26 28 31 35 40 43 45 44 44 42
74 73 71 71 71 71 70 68 66 64 62 60 58 56 54 52 51 50 49 49 48 47 45 44 42 41 39 38 36 34 33 32 31 28 29 32 33 33 33 32 33 34 32 30 29 29 31 34 35 34 33 34 35 34 33 34 36 38 39 38 39 40 38 36 34 31 29 28 26 24 26 27 27 26 24 24 27 30 34 38 43 47 46 45 43
68 67 66 64 63 63 63 61 60 58 56 54 52 51 49 48 47 46 45 45 44 43 42 41 40 38 37 35 34 33 32 32 31 30 31 34 35 36 36 35 35 35 33 31 31 31 30 32 35 35 34 34 34 34 34 34 35 37 40 40 41 43 44 41 37 32 30 30 30 29 29 29 29 26 24 23 24 28 33 36 40 45 48 48 46
62 61 59 57 56 55 54 54 53 51 50 48 47 46 45 44 43 42 42 41 41 40 39 38 37 36 35 34 33 32 31 31 31 31 31 33 35 36 37 37 36 37 38 36 33 33 30 29 31 33 35 35 35 35 37 37 37 38 40 41 42 44 45 44 40 36 33 31 32 33 32 33 32 28 23 22 23 24 29 34 37 41 46 49 48
55 53 51 49 48 47 46 46 46 45 44 43 43 42 41 40 39 39 38 38 37 37 37 36 35 34 34 33 32 31 31 30 30 30 31 32 33 34 34 35 35 37 42 43 38 34 32 29 28 29 32 34 36 37 37 38 39 38 39 42 43 44 44 43 41 39 36 33 33 34 35 35 34 30 24 22 22 23 26 30 34 38 42 47 49
48 45 44 43 42 41 40 40 41 41 41 40 39 38 38 37 36 36 35 35 35 34 34 34 34 33 32 32 31 30 29 29 29 29 30 31 32 32 32 32 34 35 38 43 41 36 34 33 30 29 31 32 36 39 37 38 39 38 39 43 45 44 43 43 41 39 36 35 35 34 35 35 35 34 28 23 21 24 25 28 31 35 38 43 47
42 40 39 38 37 36 35 36 37 37 38 37 37 36 35 34 33 33 33 33 32 32 32 32 32 31 31 30 30 29 28 28 28 28 29 30 32 33 32 32 34 35 35 38 41 39 37 36 34 34 33 31 32 36 38 38 38 39 41 44 46 45 44 44 42 39 37 36 36 35 34 34 36 37 33 25 21 23 26 27 29 32 35 40 44
37 36 35 34 34 33 33 33 34 35 35 35 34 33 33 32 31 31 30 30 30 30 30 30 30 29 29 29 29 28 28 28 27 28 29 30 31 32 33 33 33 35 35 36 41 42 40 39 39 39 35 32 32 34 38 40 39 40 42 45 47 47 46 46 43 40 38 37 36 35 34 34 36 39 36 30 24 23 26 27 29 31 33 37 41
35 34 32 31 31 31 31 32 32 32 33 32 32 31 30 30 29 29 28 28 29 29 29 28 28 28 28 28 28 27 27 27 27 27 28 29 30 30 31 32 33 35 36 37 41 44 44 43 44 43 38 34 35 36 38 41 42 42 43 45 47 47 47 47 45 41 39 38 38 37 36 35 36 40 41 36 29 26 27 28 28 29 32 35 39
33 31 30 30 31 30 30 30 30 30 30 30 30 29 28 27 27 27 27 27 27 27 27 27 27 27 27 27 27 27 27 27 26 27 28 29 29 29 29 30 32 34 36 38 41 44 45 45 46 47 46 40 37 39 41 42 43 44 45 46 46 45 46 46 45 42 40 40 40 38 37 36 37 41 43 41 36 30 29 30 29 28 30 33 37
30 28 28 29 30 30 29 29 28 28 29 29 28 28 27 26 27 27 27 27 27 27 27 27 27 27 27 27 27 27 27 27 27 27 27 28 29 29 28 29 30 33 35 38 41 45 46 46 46 49 51 48 42 40 42 44 45 45 46 48 47 46 45 46 46 44 43 42 40 39 38 37 38 41 44 43 41 36 34 33 32 29 28 30 33
28 25 26 28 29 29 29 28 28 28 28 28 28 28 27 28 28 28 28 27 27 27 27 28 28 28 28 28 28 28 27 27 27 27 27 28 29 29 28 28 29 31 34 36 40 44 47 48 48 49 51 53 49 44 43 45 48 49 49 50 50 48 46 46 46 45 44 43 42 41 40 39 39 41 44 44 42 40 39 37 34 30 28 27 28
28 25 25 28 29 29 29 28 28 28 28 29 29 28 29 30 30 30 29 29 28 28 28 28 29 30 30 30 29 29 28 28 27 27 28 29 29 29 29 28 29 30 32 34 37 41 46 49 50 50 51 53 53 49 46 45 48 51 52 52 52 51 49 48 46 45 45 45 45 43 42 41 40 41 44 45 43 42 42 40 35 32 30 28 26
31 28 28 29 29 29 30 29 29 30 30 30 30 29 29 31 31 31 30 30 30 30 30 29 30 30 30 30 30 30 30 29 28 28 29 29 30 30 30 29 29 30 31 33 35 38 42 47 50 52 52 53 53 52 49 48 48 50 52 53 53 53 52 51 49 47 46 47 47 47 46 45 42 41 43 45 45 44 43 41 36 34 32 30 28
37 34 33 33 32 32 32 32 33 33 32 32 32 31 30 31 32 32 31 31 32 32 32 32 31 31 30 30 31 31 31 31 30 29 29 30 30 30 31 30 30 30 31 32 34 36 39 43 47 51 53 54 54 53 51 49 49 50 51 52 53 53 54 54 53 51 50 49 49 49 49 48 46 43 44 45 46 45 45 42 39 36 34 31 29
40 39 38 37 36 35 36 36 37 36 36 35 34 34 33 33 33 33 33 32 32 33 33 33 33 32 31 31 31 32 32 32 31 31 30 30 31 31 31 31 31 31 31 32 33 34 37 40 44 47 51 54 56 56 54 51 50 49 50 51 52 53 54 55 56 55 53 52 51 51 50 50 49 48 47 47 48 48 47 46 44 41 37 34 31
44 42 41 40 40 39 39 39 40 39 39 38 37 37 36 36 36 36 35 34 34 34 34 34 34 34 33 32 32 33 34 34 33 33 32 32 32 32 32 32 33 33 33 33 33 34 35 38 41 44 47 50 54 57 57 55 52 50 50 50 51 52 54 56 57 57 56 55 54 53 52 52 52 52 51 50 50 49 49 49 48 46 42 38 35
Wind_Direction
283 284 284 285 286 287 288 289 290 291 291 292 293 293 294 294 294 295 295 296 296 297 298 299 300 300 301 302 302 303 303 304 305 305 306 306 307 308 309 310 310 311 311 311 311 310 310 309 310 310 309 310 310 309 309 308 308 307 306 306 306 306 307 308 307 303 296 290 288 282 274 266 262 260 257 253 246 236 225 217 222 231 237 241 240
284 284 285 286 286 287 288 288 289 290 291 292 292 293 293 294 294 295 295 295 296 297 298 298 299 299 300 301 301 302 302 303 304 304 305 306 306 307 308 309 309 310 310 309 309 309 309 308 308 309 308 308 308 308 307 307 306 305 305 305 306 306 306 307 305 299 291 288 284 276 270 263 259 257 255 251 244 234 225 218 221 230 237 240 241
283 284 285 285 286 286 287 288 289 290 290 291 292 293 293 293 294 294 294 295 295 296 297 297 298 298 299 300 300 301 301 302 303 304 305 305 306 307 308 308 309 309 309 308 308 308 307 307 307 307 307 307 307 306 306 305 304 303 303 304 305 305 305 305 302 295 288 286 280 271 265 261 258 255 252 249 242 232 225 220 221 229 235 239 240
282 283 284 285 285 286 287 287 288 289 290 290 291 292 292 292 293 293 293 294 294 295 295 296 296 297 298 299 299 300 301 302 303 304 304 305 306 307 307 307 308 308 307 307 307 307 306 306 306 306 306 305 305 304 304 303 302 301 302 303 303 303 303 303 299 290 284 283 274 263 260 258 255 252 250 247 241 231 224 220 222 229 235 238 240
282 282 283 284 284 285 286 286 287 288 289 289 290 290 291 291 291 292 292 292 293 294 294 295 295 296 297 298 299 300 301 302 303 303 304 305 306 306 306 306 306 306 306 306 306 305 305 304 304 305 304 304 303 302 302 301 300 300 300 301 301 300 300 300 294 284 280 279 268 255 252 253 251 249 247 244 239 231 224 220 222 228 234 237 239
281 282 283 283 284 284 285 285 286 287 287 288 288 289 289 290 290 290 291 291 292 293 293 294 295 296 297 298 298 299 300 301 302 303 304 304 305 305 305 305 305 305 305 305 304 304 304 303 303 303 303 302 301 301 300 299 298 298 299 299 299 298 297 296 288 278 277 274 262 249 245 247 248 246 244 241 237 231 225 221 222 228 232 235 238
281 282 282 283 283 283 284 284 285 286 286 287 288 288 289 289 289 289 290 291 291 292 293 294 295 295 296 297 298 299 300 301 302 302 303 303 303 303 303 304 304 304 304 303 303 303 303 303 302 302 301 301 300 299 298 297 297 297 297 297 296 295 294 292 281 273 273 268 256 245 240 241 244 244 241 237 234 230 226 223 222 227 231 233 236
281 281 282 282 282 282 283 283 284 285 286 287 287 287 288 288 288 289 290 290 291 292 292 293 294 295 296 297 298 299 300 300 301 301 302 302 302 302 302 302 302 302 302 302 302 302 302 302 301 300 300 299 298 297 297 296 295 295 296 295 294 292 291 287 275 269 270 262 251 242 238 237 240 240 238 234 231 229 226 224 224 227 230 232 234
280 281 281 281 281 282 282 283 284 285 286 287 287 287 288 288 289 289 290 290 291 292 292 293 294 295 296 296 297 298 299 300 300 300 301 301 301 301 301 301 301 301 301 301 301 301 301 300 299 298 298 297 296 296 295 294 294 294 294 293 291 289 287 281 269 267 267 257 247 241 238 236 236 236 235 231 229 227 226 225 224 227 230 232 234
280 280 280 281 281 282 282 283 284 286 286 286 286 287 288 289 289 289 290 291 291 292 293 294 295 295 296 296 297 298 298 298 299 299 299 300 300 300 300 300 299 300 300 300 300 300 299 299 298 297 296 295 294 294 293 292 292 292 292 290 288 285 282 275 265 265 264 254 246 241 237 234 234 234 233 230 228 226 225 224 224 226 230 232 233
280 280 280 281 281 282 283 283 284 284 285 286 286 287 288 288 288 289 290 291 291 292 293 294 294 295 295 295 296 296 297 297 298 298 298 298 299 299 299 298 298 299 299 299 298 298 298 297 296 295 294 293 292 292 291 291 290 290 289 287 284 281 277 269 261 264 261 252 245 241 236 232 230 231 231 229 228 226 225 225 224 225 228 232 234
279 280 280 281 281 282 283 283 283 284 284 285 286 286 287 287 287 289 289 290 291 292 293 293 294 294 294 294 294 295 295 296 296 296 297 297 297 297 297 297 297 297 297 298 297 297 296 296 294 293 292 291 290 290 289 289 288 288 286 283 280 276 272 264 260 264 259 250 247 243 237 231 227 227 228 228 228 227 226 225 225 224 227 231 234
279 279 280 281 281 282 282 283 283 284 284 285 285 286 286 286 287 288 289 290 290 291 292 292 293 293 293 293 293 293 294 294 295 295 295 295 296 296 296 296 296 296 296 296 296 295 295 294 292 291 290 289 289 288 288 287 286 285 282 278 275 271 266 259 259 263 258 251 248 248 242 233 226 224 226 227 227 227 227 226 226 225 226 229 233
278 279 279 280 281 281 282 283 283 284 284 284 285 285 285 286 287 288 288 289 289 290 290 291 291 291 291 291 292 292 293 293 293 293 293 294 294 295 295 295 295 295 295 295 295 295 293 292 291 289 288 287 287 286 286 285 284 282 278 273 270 266 260 256 259 261 256 250 249 250 247 237 227 224 224 226 227 228 228 227 226 226 226 227 230
277 278 279 279 280 281 282 282 283 283 284 284 284 285 285 286 286 287 288 288 288 289 289 290 289 289 290 290 291 291 292 292 292 293 293 293 294 294 294 294 294 295 294 294 294 293 292 290 289 287 286 285 285 284 283 282 281 278 272 267 264 260 255 253 257 258 253 248 248 249 248 241 230 225 225 226 227 228 229 229 227 226 227 227 229
276 277 278 279 279 280 281 282 282 283 283 283 283 283 284 285 285 286 287 287 288 289 289 288 288 288 289 290 290 291 291 292 292 292 293 293 294 294 294 294 294 294 294 294 293 292 291 289 287 285 284 283 283 282 281 279 277 273 267 262 260 255 251 253 256 256 250 247 246 247 247 243 233 227 226 227 228 228 230 231 230 227 227 229 230
276 276 277 278 279 279 280 281 282 282 282 282 282 283 284 284 285 285 286 286 288 288 287 287 287 288 289 289 290 291 291 292 292 292 293 293 294 294 294 294 294 293 293 293 292 291 290 288 285 283 281 280 280 280 278 275 272 267 261 258 256 251 248 253 256 253 249 247 246 245 245 244 237 229 227 229 229 229 231 232 232 229 228 229 232
275 276 277 278 278 279 280 281 281 282 282 282 282 283 283 284 284 285 285 286 286 286 285 285 286 287 289 289 290 290 291 291 291 292 293 293 293 293 293 294 294 293 292 291 291 291 289 286 283 280 279 278 278 276 273 270 266 261 256 253 252 250 249 252 253 251 248 247 246 243 241 242 240 232 228 230 230 230 231 233 233 232 230 229 232
276 277 277 278 279 280 280 281 281 281 282 282 282 283 283 283 284 284 284 285 285 285 284 284 286 287 288 288 288 289 289 290 290 291 292 292 293 293 293 293 293 292 291 291 291 290 287 284 281 278 277 276 274 271 268 264 260 256 252 249 248 249 250 251 249 248 247 246 245 242 239 239 239 236 230 229 230 230 231 233 234 234 232 230 231
276 277 278 279 280 280 280 281 281 281 281 282 282 282 283 283 283 283 283 284 284 284 283 283 285 286 286 286 287 287 288 289 289 290 290 291 292 293 293 292 291 291 291 291 290 288 283 280 278 276 274 272 269 266 262 258 254 251 249 246 246 249 250 249 246 246 245 244 243 241 239 236 236 237 233 229 229 229 230 232 235 235 234 232 231
277 278 279 279 280 280 280 280 280 280 281 281 281 282 282 282 282 283 283 283 283 282 282 282 284 284 284 285 286 287 287 287 288 289 289 290 291 291 291 290 289 289 289 289 288 283 279 277 276 273 269 266 264 261 257 253 250 248 246 244 244 250 250 247 244 242 241 240 240 239 238 236 234 235 235 231 229 229 229 231 235 237 237 235 234
277 278 278 279 279 279 279 279 279 280 280 280 281 281 281 281 282 282 282 282 282 281 281 282 283 283 284 284 285 286 286 287 288 288 289 289 290 289 289 288 287 286 287 286 283 279 277 274 272 269 265 261 258 255 250 247 246 246 244 242 246 250 250 246 241 236 235 237 238 237 237 236 234 233 233 232 231 229 229 229 233 237 239 239 237
277 278 277 278 278 278 278 278 278 279 279 279 280 280 281 281 281 281 281 281 281 281 281 281 282 283 283 284 285 286 286 287 288 288 289 289 289 288 288 287 286 285 284 282 278 276 274 271 268 265 261 257 253 248 244 241 242 244 242 243 247 251 251 246 236 231 231 234 235 236 236 236 235 233 231 231 231 230 229 230 232 235 239 241 241
277 277 277 276 277 277 277 277 278 278 279 279 280 280 280 281 281 281 281 281 281 281 281 281 282 283 284 285 285 286 287 288 288 288 288 288 288 287 287 286 285 284 281 278 276 274 271 268 263 260 258 253 248 243 239 237 239 242 241 244 248 251 252 244 232 229 229 231 233 234 236 237 237 234 231 230 230 230 230 230 232 235 238 241 242
277 277 276 277 276 277 277 277 278 278 279 279 279 280 280 280 280 281 281 281 281 281 281 282 282 283 284 285 286 286 287 288 288 288 288 287 287 287 286 285 283 278 275 274 273 270 267 263 259 256 254 250 245 239 234 234 238 241 242 245 249 252 252 241 231 229 228 230 232 233 235 237 238 236 232 230 229 230 230 230 231 233 237 241 242
276 276 276 277 277 277 277 277 278 278 278 279 279 279 279 280 280 280 280 280 281 281 281 282 283 284 285 285 286 287 287 288 287 287 287 286 286 285 283 282 279 273 270 269 266 265 262 260 258 253 250 247 242 236 231 233 238 241 243 245 248 253 250 238 230 230 230 231 232 233 235 236 236 235 233 230 229 230 231 231 232 232 234 237 241
276 277 277 277 277 277 277 277 277 278 278 278 278 279 279 279 279 279 280 280 280 281 282 283 284 284 285 286 286 287 287 287 287 286 286 285 284 283 282 280 277 272 268 264 261 259 257 258 256 248 245 244 239 234 230 230 235 239 242 245 248 252 249 236 229 231 232 233 234 235 237 237 236 234 232 230 229 230 231 232 233 233 233 234 238
276 276 276 276 276 276 277 277 277 277 278 278 277 277 278 278 278 279 279 280 280 281 282 283 284 284 285 285 286 286 286 285 285 285 284 284 283 282 280 278 274 270 264 261 258 254 252 253 251 245 240 239 236 232 229 228 231 237 242 246 250 252 247 234 228 230 233 235 236 237 240 240 238 235 230 229 229 230 231 232 233 233 233 234 237
275 275 276 276 276 276 276 276 276 277 277 277 276 276 277 277 278 278 279 280 281 282 282 283 283 284 284 284 284 284 284 283 283 283 283 284 284 282 279 275 269 265 260 258 254 249 247 246 245 242 238 235 235 232 230 229 228 234 244 250 251 253 247 233 227 230 232 234 235 238 240 241 241 239 232 228 228 229 231 233 234 233 234 235 238
274 274 275 275 276 276 275 275 275 275 275 275 276 276 276 277 278 278 279 280 281 282 282 282 283 283 282 282 282 282 281 281 281 282 284 287 284 279 274 269 265 263 260 256 249 245 243 237 236 239 237 235 235 233 233 232 227 232 245 249 249 253 247 232 227 230 233 234 235 237 239 240 242 243 239 231 227 228 230 232 235 235 235 236 238
274 274 274 274 275 275 274 274 274 274 274 275 275 276 276 277 278 279 279 280 281 281 281 281 281 281 280 280 279 279 280 280 280 281 283 280 272 268 267 264 261 258 256 253 247 242 234 227 228 235 237 235 234 233 233 232 227 229 241 246 249 255 246 231 228 230 233 235 235 236 237 239 243 246 245 239 231 228 229 232 235 237 239 240 240
273 273 273 273 273 273 273 273 273 274 274 275 275 276 277 277 278 279 279 280 280 280 280 279 279 278 278 277 277 278 279 279 278 277 271 262 257 255 255 255 252 250 252 250 244 236 226 221 224 231 235 234 233 234 233 231 226 227 237 241 247 252 243 232 230 230 232 233 233 234 236 240 246 248 249 246 239 232 230 231 234 238 241 243 244
271 272 272 272 272 272 272 273 273 273 274 275 275 276 277 277 278 278 278 278 278 278 277 277 276 276 276 276 276 277 278 276 275 272 261 253 252 248 242 240 241 243 250 251 243 231 223 221 225 229 234 235 234 236 236 233 227 228 234 236 239 243 237 230 229 228 229 231 231 233 236 240 245 248 250 249 244 238 235 233 234 237 241 244 246
270 271 271 271 271 272 272 272 273 273 274 275 275 275 276 276 277 276 276 276 276 275 275 275 274 275 275 275 275 276 275 273 270 264 255 249 246 244 236 232 233 234 241 246 240 229 223 222 225 228 233 235 236 237 238 236 231 231 234 232 229 232 232 227 223 222 225 230 234 235 237 240 244 248 251 251 248 242 238 237 236 236 239 242 245
270 271 271 272 272 272 272 273 273 273 274 274 274 274 274 274 274 274 274 273 273 273 273 273 273 273 273 273 273 273 271 267 263 255 247 243 240 241 236 228 227 228 234 239 236 229 224 224 227 230 233 235 236 237 238 237 236 235 237 232 222 221 226 225 221 221 223 226 231 236 238 239 243 247 252 253 250 245 240 238 237 237 237 239 242
270 271 271 271 272 273 273 273 273 273 273 273 272 272 271 271 271 271 271 271 271 271 271 271 271 271 271 270 269 268 264 261 258 249 241 239 237 237 236 231 225 224 229 232 227 225 226 225 227 231 235 237 237 236 237 239 240 240 240 235 224 220 223 223 222 224 228 229 227 232 236 238 241 244 250 253 250 246 241 238 238 237 238 239 240
270 270 270 271 271 272 273 273 273 272 271 271 270 269 268 268 268 268 268 269 269 270 270 270 269 268 267 265 263 261 258 255 253 248 240 238 236 235 235 235 230 223 220 221 221 221 223 224 225 230 235 239 239 237 235 236 240 243 242 239 232 227 226 223 223 229 237 237 232 232 234 237 238 240 246 251 250 246 242 239 238 237 238 240 241
270 270 271 271 271 271 272 273 273 272 271 269 268 267 267 266 266 266 266 266 267 267 267 267 266 264 262 260 258 256 254 250 248 245 241 238 237 236 236 236 235 226 218 217 219 218 220 222 224 228 233 238 241 241 238 235 235 238 240 240 236 233 230 228 230 237 243 245 241 237 236 237 237 237 243 249 251 250 245 242 240 238 238 239 241
271 271 272 271 270 270 270 270 270 270 270 268 268 267 266 265 265 264 264 264 264 264 263 263 262 260 258 256 254 252 250 248 245 242 240 237 235 235 234 235 235 230 222 220 220 217 216 218 220 225 230 233 237 240 241 238 234 234 236 236 235 234 234 232 234 240 245 248 246 241 240 240 237 235 238 246 253 255 252 246 243 241 239 239 240
273 272 271 270 269 268 267 267 267 268 268 268 267 267 266 265 264 263 263 262 261 260 259 258 257 257 256 254 252 249 247 245 243 240 238 236 233 231 230 230 231 228 226 224 221 216 214 214 213 219 226 228 231 233 235 237 233 230 230 230 231 233 236 235 234 237 244 248 246 243 243 243 240 236 235 240 251 258 256 251 246 243 241 239 238
273 272 271 270 269 268 265 264 265 266 266 267 267 267 266 265 263 262 261 260 258 257 256 255 254 254 253 252 250 248 245 242 240 238 237 234 231 228 226 227 228 226 225 225 223 216 214 213 210 216 224 225 227 229 230 232 231 227 225 225 227 230 234 236 236 238 244 246 246 244 245 246 243 239 235 234 243 256 258 253 248 244 243 241 238
274 272 271 271 270 268 266 264 264 264 265 266 267 267 266 265 263 261 259 258 257 255 254 253 252 252 251 250 249 247 244 241 238 236 235 234 232 229 227 228 230 227 223 223 223 220 216 213 210 215 225 224 222 224 227 228 228 226 224 224 227 230 232 237 240 242 244 245 247 247 246 247 244 239 237 233 234 248 257 256 250 245 242 241 240
273 273 274 273 271 268 266 264 264 264 265 265 266 266 266 265 263 261 259 257 256 255 254 253 251 250 249 248 247 245 242 239 236 235 234 234 233 231 230 230 232 231 226 222 223 223 220 214 211 215 224 225 221 221 224 225 225 226 225 223 227 230 232 235 239 241 241 243 245 246 245 246 244 240 239 236 231 237 251 255 251 247 244 241 240
273 274 275 274 271 269 266 264 263 263 264 265 266 265 265 265 264 263 260 257 256 255 254 252 250 249 248 247 245 242 240 238 236 235 236 236 235 234 233 232 232 232 230 226 223 224 224 217 212 215 221 225 225 223 223 225 226 227 226 225 225 227 229 231 234 234 235 238 242 244 244 242 241 240 241 242 237 233 240 248 248 246 244 243 241
273 273 273 271 270 269 267 265 264 263 262 263 263 264 264 264 263 262 259 257 255 253 252 251 250 249 248 247 245 242 239 237 236 237 238 239 237 236 235 234 233 232 231 230 227 226 227 223 217 216 219 222 226 226 224 224 227 228 229 228 226 226 227 229 230 231 232 235 240 243 243 240 239 239 241 243 242 239 237 239 242 242 242 243 243
272 272 271 269 268 268 266 265 263 262 261 260 260 260 260 261 261 260 259 257 254 252 250 250 250 250 249 248 246 243 240 238 238 239 240 241 240 239 238 236 235 232 231 231 231 229 229 228 224 221 221 222 225 228 227 225 227 230 231 231 230 229 229 230 231 232 233 235 238 242 243 241 238 238 238 239 241 243 242 238 236 237 239 241 244
272 270 267 266 266 266 265 263 261 261 261 260 259 258 256 257 258 259 259 258 256 253 250 249 249 249 249 248 247 245 243 240 239 240 241 242 242 242 241 239 237 235 232 232 232 231 231 231 230 228 226 225 226 229 231 231 229 230 232 233 233 233 232 232 232 233 234 235 238 241 243 243 240 237 236 237 239 242 246 244 235 232 236 239 242
272 268 265 264 264 264 262 259 258 259 260 260 259 257 255 254 255 256 257 258 257 256 254 253 251 249 249 248 248 247 245 243 241 240 242 243 243 243 243 242 239 237 235 233 233 232 232 232 232 232 232 231 230 231 234 236 235 234 234 235 235 235 235 235 234 233 233 235 238 241 244 246 246 241 237 237 239 241 246 247 239 233 235 237 241
268 267 265 263 261 259 258 255 254 255 257 257 258 257 255 254 253 254 255 256 257 257 257 256 255 253 251 249 248 247 247 246 244 242 242 244 244 244 243 243 242 240 238 237 235 234 233 232 232 233 234 235 235 234 234 235 236 236 237 237 237 237 237 238 237 236 235 236 238 241 244 247 249 246 241 239 240 241 243 245 241 237 236 237 239
264 264 263 262 260 258 255 253 252 252 253 254 254 254 253 253 253 254 254 255 255 256 256 257 256 255 253 251 248 248 248 248 247 245 244 244 245 245 245 245 244 242 241 240 238 237 234 233 233 233 234 235 235 236 236 235 235 236 237 238 239 239 239 240 240 241 240 239 240 242 243 246 247 247 246 243 241 242 243 243 242 241 239 238 239
263 262 261 260 260 258 255 253 252 252 252 252 251 250 250 251 251 252 253 254 255 255 255 256 256 256 255 253 251 249 249 249 248 248 246 245 245 246 246 246 246 244 243 241 240 240 238 236 234 233 233 234 235 236 236 235 234 235 237 238 239 240 241 241 242 243 244 243 243 243 243 244 246 247 249 248 246 245 244 244 243 243 243 241 241
Height
10897 10897 10898 10900 10901 10900 10900 10900 10900 10900 10899 10899 10898 10897 10897 10896 10895 10895 10894 10893 10893 10892 10892 10891 10890 10889 10888 10887 10886 10885 10883 10882 10882 10881 10879 10876 10874 10874 10873 10872 10870 10869 10866 10863 10862 10861 10858 10855 10854 10852 10850 10848 10846 10844 10842 10841 10839 10837 10836 10834 10833 10833 10833 10833 10832 10831 10830 10829 10827 10826 10825 10825 10825 10824 10825 10825 10826 10827 10827 10827 10827 10827 10827 10827 10828
10892 10892 10894 10895 10896 10896 10895 10895 10896 10895 10895 10894 10894 10893 10892 10891 10891 10890 10889 10888 10888 10888 10888 10887 10886 10885 10884 10883 10882 10880 10878 10877 10876 10875 10875 10872 10870 10869 10868 10867 10866 10865 10862 10859 10858 10857 10854 10851 10850 10848 10846 10844 10842 10840 10839 10837 10835 10833 10832 10831 10830 10830 10830 10830 10829 10828 10828 10827 10825 10824 10823 10823 10823 10823 10823 10824 10825 10825 10826 10825 10825 10825 10825 10825 10826
10888 10888 10888 10890 10891 10891 10891 10891 10891 10891 10891 10890 10890 10888 10887 10887 10886 10885 10883 10883 10883 10883 10883 10882 10881 10880 10880 10879 10878 10876 10874 10872 10871 10870 10869 10868 10866 10864 10863 10862 10861 10860 10858 10855 10854 10853 10850 10847 10845 10844 10841 10840 10838 10837 10835 10834 10832 10830 10828 10827 10827 10826 10827 10827 10826 10825 10825 10825 10823 10822 10821 10821 10821 10821 10821 10822 10823 10824 10824 10824 10824 10823 10823 10824 10825
10883 10882 10883 10884 10886 10886 10886 10886 10886 10887 10886 10886 10885 10884 10883 10882 10881 10879 10878 10877 10877 10878 10878 10877 10876 10876 10875 10874 10874 10872 10870 10868 10866 10864 10863 10863 10861 10859 10858 10857 10856 10855 10853 10851 10849 10848 10846 10842 10841 10840 10837 10836 10834 10833 10832 10830 10828 10826 10825 10824 10824 10824 10824 10824 10823 10823 10823 10822 10821 10820 10819 10819 10819 10819 10819 10820 10821 10822 10822 10822 10822 10822 10822 10822 10823
10877 10877 10877 10878 10880 10881 10881 10880 10881 10882 10881 10881 10880 10879 10878 10877 10875 10873 10872 10871 10872 10873 10872 10871 10871 10871 10870 10870 10869 10867 10866 10864 10862 10860 10859 10858 10856 10854 10852 10852 10850 10850 10849 10847 10844 10843 10841 10838 10836 10835 10833 10831 10830 10829 10828 10826 10824 10822 10821 10821 10821 10821 10821 10821 10820 10820 10820 10819 10819 10818 10817 10817 10817 10817 10817 10818 10819 10820 10821 10821 10821 10820 10820 10821 10821
10871 10872 10871 10872 10873 10875 10875 10875 10876 10876 10877 10876 10875 10874 10873 10871 10869 10867 10866 10866 10867 10867 10866 10866 10866 10866 10865 10864 10863 10862 10861 10859 10857 10856 10854 10853 10851 10848 10847 10846 10845 10844 10844 10842 10839 10838 10837 10834 10831 10830 10829 10827 10826 10824 10823 10822 10820 10819 10818 10818 10818 10818 10818 10818 10817 10817 10817 10817 10816 10816 10815 10815 10815 10815 10816 10816 10818 10818 10819 10819 10819 10819 10819 10819 10820
10865 10866 10866 10865 10866 10868 10869 10870 10870 10871 10871 10871 10869 10867 10866 10865 10863 10861 10860 10861 10862 10862 10861 10861 10861 10861 10860 10858 10857 10857 10856 10855 10853 10851 10849 10848 10846 10844 10841 10840 10839 10839 10838 10837 10835 10832 10831 10829 10826 10825 10824 10823 10821 10820 10819 10818 10816 10815 10814 10814 10814 10814 10815 10815 10814 10813 10814 10814 10813 10813 10813 10813 10813 10813 10814 10815 10816 10816 10817 10817 10817 10817 10818 10818 10818
10859 10860 10860 10859 10859 10861 10862 10864 10865 10865 10866 10864 10862 10860 10859 10858 10856 10855 10855 10856 10856 10856 10856 10856 10855 10855 10854 10853 10852 10851 10851 10850 10848 10845 10844 10843 10841 10839 10836 10835 10833 10833 10832 10832 10830 10827 10826 10824 10822 10820 10819 10818 10816 10816 10815 10814 10812 10811 10810 10810 10811 10811 10811 10811 10810 10810 10811 10811 10810 10810 10810 10811 10811 10811 10812 10813 10813 10814 10815 10816 10816 10816 10816 10816 10816
10853 10853 10853 10852 10853 10854 10855 10858 10859 10861 10859 10855 10854 10854 10853 10852 10851 10849 10850 10850 10850 10850 10850 10850 10850 10849 10849 10847 10846 10846 10845 10844 10843 10840 10838 10837 10835 10833 10831 10829 10827 10826 10827 10826 10824 10822 10821 10819 10817 10815 10814 10813 10812 10812 10811 10809 10808 10807 10806 10806 10807 10807 10808 10808 10807 10807 10807 10808 10808 10808 10808 10808 10809 10809 10810 10810 10811 10812 10813 10814 10814 10814 10814 10815 10815
10847 10846 10846 10845 10846 10847 10849 10851 10855 10857 10850 10844 10847 10848 10847 10846 10844 10844 10844 10845 10844 10845 10845 10845 10844 10843 10843 10842 10841 10840 10839 10838 10837 10835 10833 10831 10829 10828 10825 10823 10821 10820 10821 10821 10819 10817 10816 10814 10812 10810 10809 10808 10807 10807 10806 10805 10804 10803 10802 10802 10803 10804 10804 10804 10804 10804 10804 10805 10805 10805 10805 10806 10807 10807 10807 10808 10809 10809 10810 10811 10812 10812 10813 10813 10813
10840 10839 10839 10839 10839 10841 10842 10845 10850 10852 10843 10838 10842 10843 10842 10839 10837 10838 10839 10839 10839 10839 10839 10839 10838 10837 10837 10836 10835 10834 10833 10832 10831 10830 10828 10825 10824 10823 10820 10817 10815 10814 10814 10815 10814 10812 10811 10809 10807 10805 10804 10804 10803 10803 10802 10801 10801 10800 10799 10799 10800 10800 10801 10800 10800 10801 10801 10801 10802 10802 10803 10804 10804 10805 10805 10806 10806 10807 10808 10809 10809 10810 10810 10811 10811
10832 10832 10832 10832 10833 10834 10836 10837 10841 10844 10840 10835 10835 10837 10837 10833 10832 10834 10834 10834 10833 10833 10833 10833 10832 10831 10830 10830 10829 10828 10827 10826 10825 10823 10822 10820 10818 10818 10815 10812 10810 10808 10808 10808 10808 10807 10805 10804 10802 10800 10799 10799 10798 10798 10798 10797 10797 10796 10795 10795 10796 10797 10797 10797 10797 10798 10798 10798 10799 10799 10800 10801 10802 10803 10803 10804 10804 10804 10805 10806 10807 10808 10808 10809 10809
10825 10825 10826 10826 10827 10827 10829 10831 10832 10835 10835 10831 10828 10831 10830 10827 10828 10829 10829 10830 10828 10827 10827 10826 10825 10824 10823 10823 10822 10822 10820 10820 10819 10817 10815 10814 10813 10813 10811 10807 10804 10803 10802 10802 10802 10802 10799 10798 10797 10795 10794 10794 10793 10794 10794 10793 10793 10793 10792 10792 10793 10793 10793 10794 10795 10795 10795 10796 10796 10796 10797 10798 10799 10800 10800 10801 10801 10802 10803 10804 10804 10805 10806 10806 10807
10818 10818 10819 10819 10820 10820 10821 10823 10825 10826 10827 10825 10823 10823 10821 10822 10823 10823 10823 10824 10823 10823 10821 10820 10819 10817 10816 10815 10814 10814 10813 10812 10812 10810 10809 10809 10808 10807 10806 10802 10798 10797 10797 10796 10795 10796 10794 10792 10791 10790 10789 10789 10789 10789 10789 10789 10789 10789 10789 10788 10789 10790 10790 10791 10792 10792 10793 10793 10793 10793 10794 10796 10797 10797 10798 10799 10799 10799 10800 10801 10802 10803 10804 10804 10805
10810 10811 10812 10813 10813 10814 10814 10815 10817 10818 10819 10819 10817 10815 10814 10816 10817 10817 10817 10817 10817 10817 10815 10813 10811 10810 10808 10808 10807 10806 10805 10805 10805 10803 10802 10802 10802 10802 10801 10798 10795 10792 10791 10791 10789 10790 10790 10787 10785 10784 10783 10784 10784 10784 10784 10784 10785 10786 10785 10785 10785 10786 10787 10788 10789 10789 10790 10790 10791 10791 10791 10793 10794 10795 10796 10796 10797 10797 10798 10799 10800 10801 10801 10802 10803
10803 10804 10806 10807 10807 10807 10808 10808 10809 10809 10810 10811 10810 10809 10809 10810 10810 10811 10811 10811 10811 10810 10808 10804 10802 10802 10801 10801 10799 10798 10797 10797 10797 10796 10795 10795 10796 10796 10795 10793 10791 10788 10786 10785 10784 10783 10784 10782 10779 10778 10778 10779 10780 10780 10780 10780 10781 10782 10782 10781 10782 10783 10784 10785 10785 10786 10787 10787 10788 10788 10789 10790 10792 10793 10793 10794 10795 10795 10796 10797 10798 10798 10799 10800 10801
10795 10798 10799 10801 10801 10802 10802 10802 10802 10802 10802 10802 10802 10803 10804 10803 10803 10804 10803 10804 10806 10803 10799 10795 10794 10794 10795 10794 10792 10791 10790 10790 10790 10788 10788 10789 10789 10788 10788 10787 10786 10783 10781 10780 10779 10777 10777 10777 10774 10773 10773 10774 10775 10775 10776 10776 10777 10778 10778 10777 10778 10779 10781 10782 10782 10783 10783 10784 10785 10786 10786 10787 10789 10791 10791 10792 10793 10794 10794 10795 10796 10796 10797 10798 10799
10788 10790 10793 10794 10795 10796 10796 10795 10794 10794 10793 10792 10793 10795 10796 10795 10796 10797 10795 10798 10800 10796 10791 10786 10785 10786 10788 10787 10785 10783 10783 10783 10782 10781 10781 10781 10781 10781 10781 10781 10779 10778 10776 10774 10773 10772 10771 10772 10770 10768 10769 10770 10770 10771 10771 10772 10774 10774 10774 10774 10775 10776 10778 10779 10779 10779 10780 10781 10782 10783 10784 10785 10786 10788 10789 10790 10791 10792 10792 10793 10794 10794 10795 10796 10797
10781 10783 10785 10787 10788 10789 10788 10788 10787 10786 10784 10784 10785 10787 10787 10787 10788 10788 10788 10789 10790 10790 10785 10778 10777 10779 10780 10780 10778 10777 10777 10777 10776 10775 10775 10774 10774 10774 10774 10774 10773 10772 10770 10768 10767 10767 10765 10765 10766 10764 10764 10765 10766 10767 10767 10769 10770 10770 10771 10771 10772 10773 10774 10775 10776 10776 10777 10778 10779 10780 10781 10782 10783 10785 10786 10788 10789 10790 10790 10791 10792 10792 10793 10794 10795
10775 10777 10778 10779 10780 10780 10780 10779 10778 10777 10776 10776 10777 10778 10779 10779 10779 10780 10782 10782 10781 10780 10777 10772 10771 10772 10772 10772 10771 10771 10771 10770 10769 10770 10769 10768 10767 10768 10768 10767 10767 10766 10765 10763 10761 10761 10760 10759 10760 10759 10759 10760 10762 10762 10763 10765 10766 10766 10767 10768 10769 10770 10771 10772 10772 10773 10774 10775 10776 10777 10778 10780 10781 10782 10783 10785 10787 10787 10788 10789 10789 10790 10791 10792 10793
10769 10771 10772 10772 10771 10770 10770 10770 10769 10768 10767 10767 10768 10769 10770 10770 10771 10772 10773 10774 10774 10772 10768 10766 10765 10765 10765 10765 10764 10764 10764 10763 10763 10763 10763 10762 10762 10761 10761 10761 10760 10760 10759 10758 10756 10755 10755 10754 10754 10754 10754 10755 10757 10758 10759 10761 10762 10762 10764 10765 10766 10766 10767 10768 10769 10770 10770 10771 10773 10774 10775 10777 10778 10779 10781 10782 10784 10785 10786 10787 10787 10788 10789 10789 10790
10761 10764 10764 10763 10762 10761 10761 10760 10759 10759 10759 10758 10758 10760 10761 10760 10761 10763 10764 10764 10765 10764 10761 10759 10757 10757 10757 10757 10758 10758 10757 10756 10756 10757 10757 10756 10755 10754 10754 10754 10753 10754 10753 10752 10751 10750 10750 10749 10749 10749 10750 10751 10753 10754 10755 10757 10758 10758 10760 10761 10762 10763 10764 10765 10766 10766 10767 10768 10769 10770 10772 10773 10775 10776 10778 10779 10781 10783 10783 10784 10785 10786 10787 10787 10788
10752 10754 10755 10754 10753 10752 10751 10750 10750 10750 10749 10749 10749 10750 10751 10751 10751 10753 10754 10754 10754 10754 10753 10751 10749 10749 10749 10749 10750 10750 10750 10750 10750 10750 10750 10749 10748 10747 10747 10747 10747 10748 10748 10747 10747 10745 10744 10744 10744 10744 10745 10747 10748 10750 10751 10753 10753 10754 10756 10757 10758 10760 10761 10761 10762 10763 10764 10765 10766 10767 10768 10770 10771 10773 10774 10776 10778 10780 10781 10782 10783 10784 10784 10785 10786
10741 10742 10744 10744 10744 10743 10742 10741 10740 10740 10741 10741 10741 10741 10741 10741 10742 10743 10744 10744 10744 10744 10744 10743 10742 10741 10741 10741 10741 10742 10743 10744 10743 10743 10743 10743 10742 10741 10741 10741 10741 10742 10743 10742 10742 10740 10739 10739 10739 10739 10740 10742 10744 10745 10747 10749 10749 10750 10752 10754 10755 10756 10757 10758 10760 10761 10761 10762 10763 10764 10765 10766 10768 10769 10771 10773 10774 10776 10778 10780 10781 10782 10782 10783 10784
10730 10732 10732 10733 10734 10735 10734 10733 10732 10732 10732 10732 10732 10732 10732 10732 10732 10733 10734 10734 10734 10734 10734 10734 10734 10733 10733 10733 10733 10735 10736 10737 10737 10736 10736 10736 10736 10735 10735 10735 10735 10736 10737 10737 10737 10736 10735 10734 10735 10735 10735 10737 10739 10741 10743 10744 10745 10747 10748 10750 10752 10753 10754 10755 10757 10758 10759 10759 10760 10761 10762 10763 10764 10766 10767 10769 10771 10773 10775 10777 10779 10780 10780 10781 10783
10719 10722 10723 10724 10724 10725 10725 10725 10724 10723 10724 10724 10724 10724 10723 10723 10723 10724 10724 10724 10725 10725 10726 10726 10726 10726 10725 10725 10726 10728 10729 10729 10729 10730 10730 10730 10730 10729 10728 10728 10729 10730 10731 10732 10732 10731 10731 10730 10731 10730 10730 10732 10735 10737 10739 10740 10742 10743 10745 10747 10748 10750 10751 10752 10754 10755 10756 10757 10757 10758 10759 10760 10761 10763 10764 10766 10768 10770 10773 10775 10776 10777 10778 10779 10781
10710 10712 10714 10715 10716 10716 10716 10716 10716 10716 10716 10717 10716 10715 10715 10715 10715 10715 10716 10716 10716 10717 10718 10718 10718 10718 10718 10717 10719 10720 10721 10722 10722 10723 10723 10723 10723 10723 10723 10723 10723 10724 10725 10727 10727 10727 10726 10726 10726 10726 10726 10728 10731 10733 10735 10737 10738 10740 10742 10743 10745 10746 10748 10749 10751 10753 10754 10754 10755 10755 10756 10757 10758 10759 10761 10763 10765 10767 10770 10772 10773 10775 10776 10777 10778
10702 10703 10704 10706 10708 10708 10708 10708 10708 10708 10708 10709 10708 10707 10707 10707 10707 10707 10708 10708 10709 10710 10711 10711 10711 10711 10711 10710 10711 10713 10714 10715 10715 10716 10716 10717 10717 10716 10717 10717 10717 10718 10719 10721 10722 10722 10722 10722 10721 10722 10723 10724 10727 10729 10731 10733 10735 10737 10739 10741 10742 10743 10745 10746 10748 10750 10751 10752 10752 10753 10753 10754 10755 10756 10758 10760 10762 10764 10767 10769 10771 10772 10774 10775 10776
10695 10695 10695 10696 10699 10700 10701 10701 10701 10700 10700 10700 10700 10700 10699 10699 10699 10700 10700 10701 10701 10702 10704 10704 10704 10704 10704 10704 10704 10706 10707 10708 10709 10710 10711 10711 10711 10710 10711 10712 10711 10712 10714 10715 10717 10718 10718 10718 10717 10718 10720 10721 10723 10726 10728 10730 10732 10734 10736 10738 10739 10740 10741 10743 10745 10746 10748 10749 10749 10750 10750 10751 10752 10753 10755 10757 10759 10761 10763 10765 10767 10769 10770 10772 10773
10687 10687 10686 10687 10689 10691 10693 10693 10693 10693 10692 10692 10692 10692 10691 10691 10692 10693 10693 10694 10695 10695 10696 10696 10697 10697 10697 10697 10698 10698 10700 10702 10703 10705 10707 10707 10705 10704 10705 10706 10706 10707 10709 10710 10712 10713 10714 10714 10714 10714 10716 10717 10720 10722 10725 10727 10729 10731 10734 10735 10736 10737 10738 10740 10742 10744 10745 10746 10747 10747 10747 10748 10749 10751 10752 10753 10755 10757 10759 10762 10763 10765 10767 10768 10769
10678 10679 10679 10680 10681 10682 10683 10684 10685 10685 10685 10684 10684 10684 10684 10684 10685 10686 10686 10687 10688 10688 10688 10689 10690 10690 10690 10691 10691 10692 10694 10696 10697 10700 10705 10704 10699 10698 10701 10702 10702 10701 10702 10704 10707 10709 10710 10711 10711 10711 10712 10714 10716 10718 10721 10724 10726 10728 10731 10732 10733 10734 10736 10737 10739 10741 10742 10743 10744 10744 10745 10745 10747 10748 10749 10751 10752 10754 10756 10758 10760 10762 10763 10765 10766
10669 10670 10671 10672 10672 10673 10674 10675 10676 10676 10677 10677 10677 10676 10677 10677 10678 10679 10679 10679 10680 10681 10681 10681 10682 10683 10684 10684 10685 10686 10688 10690 10691 10695 10700 10698 10693 10694 10697 10697 10696 10696 10697 10700 10702 10704 10706 10707 10708 10708 10709 10710 10712 10714 10717 10719 10722 10725 10728 10729 10730 10732 10733 10734 10736 10738 10739 10740 10741 10741 10742 10743 10744 10746 10747 10748 10750 10751 10752 10754 10756 10758 10760 10761 10762
10661 10662 10663 10664 10664 10665 10666 10667 10668 10668 10669 10669 10670 10670 10670 10670 10671 10671 10671 10672 10672 10673 10674 10675 10675 10676 10677 10678 10679 10681 10682 10684 10686 10689 10692 10691 10688 10689 10692 10691 10690 10693 10695 10697 10698 10700 10702 10704 10705 10706 10706 10707 10709 10711 10713 10715 10718 10720 10723 10726 10728 10729 10730 10732 10733 10735 10737 10737 10738 10739 10739 10740 10742 10743 10745 10746 10747 10748 10750 10751 10753 10755 10756 10758 10759
10653 10654 10655 10655 10656 10657 10658 10659 10660 10661 10662 10662 10663 10663 10663 10663 10663 10664 10664 10665 10665 10666 10667 10668 10668 10670 10671 10672 10673 10676 10677 10677 10680 10683 10684 10685 10683 10683 10686 10686 10688 10691 10693 10693 10694 10696 10698 10700 10701 10702 10703 10705 10706 10708 10709 10711 10714 10716 10719 10722 10725 10727 10728 10729 10731 10732 10734 10734 10735 10736 10737 10738 10740 10741 10742 10743 10744 10746 10747 10748 10750 10751 10753 10754 10756
10646 10646 10647 10647 10647 10648 10650 10651 10652 10653 10654 10655 10656 10656 10657 10657 10657 10657 10657 10658 10659 10660 10661 10661 10662 10664 10665 10666 10668 10670 10672 10672 10674 10677 10677 10678 10678 10678 10680 10683 10685 10687 10689 10690 10691 10692 10694 10696 10697 10699 10700 10702 10703 10704 10706 10708 10710 10712 10714 10717 10721 10723 10724 10726 10728 10729 10730 10731 10732 10733 10734 10735 10737 10739 10740 10740 10741 10742 10743 10745 10746 10748 10749 10751 10752
10638 10638 10640 10640 10640 10639 10641 10643 10644 10645 10646 10647 10648 10649 10650 10650 10651 10651 10651 10652 10653 10654 10655 10656 10657 10658 10659 10661 10663 10664 10667 10667 10668 10670 10670 10670 10673 10674 10676 10679 10681 10683 10685 10687 10688 10689 10690 10692 10694 10696 10697 10699 10700 10702 10703 10704 10706 10707 10709 10712 10716 10718 10720 10722 10724 10726 10727 10727 10729 10730 10731 10733 10734 10736 10737 10737 10738 10739 10740 10741 10742 10744 10745 10747 10749
10629 10630 10632 10634 10634 10633 10633 10634 10636 10638 10639 10640 10641 10642 10643 10644 10645 10646 10646 10646 10647 10648 10649 10650 10652 10653 10654 10656 10658 10659 10661 10662 10663 10664 10665 10665 10668 10669 10671 10673 10676 10678 10681 10682 10683 10683 10685 10687 10690 10693 10695 10696 10697 10699 10700 10701 10703 10704 10705 10708 10711 10714 10716 10718 10720 10722 10723 10724 10726 10727 10728 10730 10731 10732 10733 10734 10735 10735 10736 10737 10738 10740 10741 10743 10745
10622 10624 10626 10628 10628 10628 10628 10627 10628 10629 10631 10632 10634 10635 10637 10638 10639 10640 10641 10641 10642 10643 10644 10645 10646 10648 10649 10651 10653 10655 10656 10657 10658 10659 10660 10661 10663 10665 10667 10669 10671 10674 10676 10677 10677 10677 10680 10685 10688 10690 10692 10693 10695 10696 10697 10698 10699 10700 10701 10704 10707 10710 10712 10714 10716 10717 10719 10721 10722 10724 10725 10726 10727 10729 10730 10731 10731 10732 10732 10733 10734 10736 10737 10739 10741
10615 10618 10620 10621 10622 10623 10622 10621 10621 10622 10623 10625 10627 10629 10631 10632 10633 10634 10635 10636 10637 10638 10638 10639 10641 10642 10644 10646 10648 10650 10651 10653 10654 10655 10656 10657 10659 10660 10663 10665 10666 10668 10670 10672 10673 10675 10679 10682 10685 10686 10687 10689 10690 10692 10693 10695 10696 10697 10699 10700 10702 10705 10708 10710 10712 10713 10715 10717 10719 10720 10721 10722 10724 10725 10727 10728 10729 10729 10729 10730 10731 10732 10734 10735 10737
10609 10612 10613 10614 10615 10617 10617 10616 10616 10616 10617 10619 10621 10623 10625 10626 10627 10628 10629 10630 10632 10633 10634 10634 10636 10637 10639 10641 10644 10646 10647 10648 10650 10651 10652 10654 10655 10657 10659 10660 10662 10663 10665 10668 10670 10672 10675 10677 10680 10681 10681 10683 10685 10686 10689 10690 10692 10693 10695 10696 10699 10701 10703 10705 10708 10710 10711 10713 10715 10717 10718 10719 10721 10722 10723 10724 10725 10726 10726 10727 10728 10729 10730 10731 10733
10604 10606 10607 10608 10609 10611 10611 10611 10611 10611 10612 10613 10615 10617 10619 10620 10622 10623 10624 10625 10626 10628 10629 10630 10631 10633 10635 10637 10639 10641 10643 10644 10646 10647 10648 10650 10651 10653 10655 10656 10657 10659 10661 10663 10665 10667 10669 10672 10675 10676 10677 10679 10681 10682 10684 10685 10687 10688 10690 10693 10695 10697 10699 10701 10703 10706 10708 10710 10711 10713 10715 10716 10718 10719 10720 10721 10722 10723 10723 10723 10724 10725 10726 10727 10729
10598 10600 10601 10603 10604 10605 10606 10606 10607 10607 10608 10609 10610 10612 10613 10615 10616 10618 10619 10620 10621 10623 10624 10626 10627 10629 10631 10633 10635 10637 10639 10641 10642 10644 10645 10646 10647 10649 10651 10653 10653 10655 10657 10659 10661 10662 10664 10668 10672 10673 10674 10675 10677 10678 10679 10681 10682 10684 10686 10688 10690 10693 10695 10697 10699 10702 10704 10706 10708 10709 10711 10713 10714 10715 10716 10717 10718 10720 10721 10720 10720 10721 10722 10723 10725
10594 10595 10598 10599 10600 10601 10602 10602 10603 10603 10604 10605 10606 10608 10609 10610 10612 10613 10614 10616 10617 10619 10620 10622 10624 10625 10627 10629 10631 10633 10635 10637 10638 10640 10641 10642 10643 10645 10647 10649 10650 10651 10653 10655 10657 10658 10660 10665 10669 10670 10670 10671 10673 10674 10675 10676 10678 10680 10681 10683 10685 10688 10691 10693 10695 10698 10700 10702 10703 10705 10707 10708 10710 10712 10712 10713 10714 10716 10717 10718 10718 10718 10718 10719 10720
10590 10592 10594 10595 10596 10597 10598 10598 10599 10600 10600 10601 10603 10604 10606 10607 10608 10609 10610 10612 10613 10615 10616 10618 10620 10622 10624 10625 10627 10629 10631 10633 10634 10636 10637 10638 10639 10641 10643 10645 10646 10647 10648 10650 10652 10654 10656 10661 10665 10665 10665 10666 10668 10670 10671 10673 10674 10675 10677 10679 10681 10684 10686 10688 10690 10693 10695 10697 10698 10700 10702 10704 10706 10707 10708 10709 10710 10711 10713 10714 10715 10715 10715 10715 10716
10588 10590 10591 10592 10592 10593 10594 10595 10596 10597 10597 10599 10600 10601 10603 10604 10605 10606 10607 10609 10610 10612 10613 10615 10616 10618 10620 10622 10623 10625 10627 10629 10630 10632 10633 10634 10635 10637 10639 10641 10642 10643 10644 10646 10647 10649 10651 10655 10658 10660 10660 10661 10663 10664 10667 10669 10670 10671 10673 10675 10677 10679 10681 10683 10685 10688 10690 10692 10693 10695 10697 10699 10701 10702 10704 10705 10706 10707 10708 10710 10711 10711 10711 10711 10712
10585 10587 10588 10589 10589 10590 10591 10592 10593 10594 10594 10596 10597 10599 10601 10601 10602 10603 10604 10606 10607 10609 10610 10612 10613 10614 10616 10618 10619 10621 10623 10625 10627 10628 10629 10630 10631 10633 10635 10636 10638 10639 10641 10642 10643 10645 10647 10649 10652 10654 10656 10657 10659 10660 10662 10664 10666 10668 10669 10671 10673 10676 10678 10679 10681 10684 10686 10687 10689 10690 10691 10694 10696 10697 10699 10701 10702 10702 10703 10705 10706 10707 10708 10708 10709
10581 10584 10585 10585 10586 10587 10588 10589 10590 10590 10591 10593 10594 10596 10598 10598 10599 10600 10601 10603 10604 10606 10607 10608 10610 10611 10612 10614 10616 10617 10619 10621 10623 10624 10625 10626 10627 10629 10630 10632 10634 10635 10636 10638 10639 10641 10642 10644 10647 10649 10651 10653 10655 10657 10659 10660 10662 10664 10665 10667 10670 10672 10674 10675 10677 10679 10681 10683 10684 10685 10687 10688 10690 10692 10694 10696 10698 10698 10699 10700 10702 10703 10704 10705 10706
10577 10579 10580 10581 10582 10583 10584 10585 10586 10587 10588 10590 10591 10593 10594 10594 10595 10597 10598 10599 10601 10602 10604 10605 10606 10607 10609 10611 10612 10614 10615 10617 10619 10620 10621 10622 10623 10625 10626 10628 10629 10631 10632 10633 10635 10636 10638 10640 10642 10644 10646 10648 10651 10653 10655 10656 10658 10660 10661 10663 10666 10668 10670 10671 10673 10675 10676 10678 10679 10681 10682 10683 10685 10688 10690 10692 10693 10694 10695 10697 10698 10699 10700 10701 10702
10572 10575 10576 10577 10578 10579 10580 10582 10582 10583 10585 10586 10588 10589 10590 10591 10592 10593 10595 10596 10597 10598 10599 10601 10602 10603 10605 10607 10609 10610 10611 10613 10614 10616 10617 10618 10620 10621 10622 10624 10625 10627 10628 10629 10630 10632 10633 10635 10637 10639 10641 10643 10645 10648 10650 10652 10654 10655 10657 10659 10662 10664 10666 10667 10669 10670 10672 10673 10675 10677 10678 10679 10681 10683 10685 10687 10689 10690 10691 10692 10694 10695 10696 10697 10698
10567 10570 10571 10572 10574 10575 10576 10577 10578 10579 10580 10582 10584 10585 10586 10587 10588 10590 10591 10592 10593 10594 10595 10596 10598 10599 10601 10603 10604 10606 10607 10608 10610 10612 10613 10615 10616 10617 10618 10620 10621 10622 10624 10625 10626 10627 10629 10630 10632 10634 10636 10638 10640 10642 10645 10647 10649 10650 10653 10655 10657 10659 10661 10663 10664 10666 10667 10669 10671 10673 10674 10675 10676 10677 10679 10682 10683 10685 10686 10688 10689 10690 10692 10693 10694
10562 10564 10566 10567 10568 10569 10570 10571 10572 10574 10576 10577 10579 10581 10582 10583 10584 10586 10587 10588 10589 10590 10591 10592 10594 10595 10597 10598 10600 10601 10602 10604 10605 10607 10609 10610 10612 10613 10614 10616 10617 10618 10619 10621 10622 10623 10624 10626 10627 10629 10631 10633 10635 10637 10639 10642 10644 10645 10647 10650 10652 10654 10656 10657 10659 10661 10663 10664 10666 10668 10670 10671 10672 10673 10674 10676 10678 10680 10682 10683 10684 10686 10687 10688 10690